Le nostre stazioni meteo in Italia

Pubblicità
Il mio iltempo24.it
Capo Frasca, Italia (16539): Temperatura & dewpoint: 22.03.2017 11:00:00 - 28.03.2017 11:00:00 (CEST)Capo Frasca, Italia (16539): velocità del vento: 22.03.2017 11:00:00 - 28.03.2017 11:00:00 (CEST)Capo Frasca, Italia (16539): direzione del vento: 22.03.2017 11:00:00 - 28.03.2017 11:00:00 (CEST)Capo Frasca, Italia (16539): reduced air pressure: 22.03.2017 11:00:00 - 28.03.2017 11:00:00 (CEST)Capo Frasca, Italia (16539): visibility: 22.03.2017 11:00:00 - 28.03.2017 11:00:00 (CEST)
Data & Tempo tt [°C] td [°C] ff [km/h] ff [kn] dd ppp [hPa] vv [km]
28.03.2017 11:00:00 12,0 10,6 8 4 NE 1023,2 15
28.03.2017 10:00:00 - - - - - - -
28.03.2017 09:00:00 - - - - - - -
28.03.2017 08:00:00 7,8 7,2 5 3 E 1022,5 15
28.03.2017 07:00:00 - - - - - - -
28.03.2017 06:00:00 - - - - - - -
28.03.2017 05:00:00 - - - - - - -
28.03.2017 04:00:00 - - - - - - -
28.03.2017 03:00:00 - - - - - - -
28.03.2017 02:00:00 - - - - - - -
28.03.2017 01:00:00 - - - - - - -
28.03.2017 00:00:00 - - - - - - -
27.03.2017 23:00:00 - - - - - - -
27.03.2017 22:00:00 - - - - - - -
27.03.2017 21:00:00 - - - - - - -
27.03.2017 20:00:00 15,6 15,1 9 5 O 1020,4 20
27.03.2017 19:00:00 - - - - - - -
27.03.2017 18:00:00 - - - - - - -
27.03.2017 17:00:00 16,8 15,7 16 9 O 1020,3 20
27.03.2017 16:00:00 - - - - - - -
27.03.2017 15:00:00 - - - - - - -
27.03.2017 14:00:00 17,2 16,6 15 8 O 1020,5 20
27.03.2017 13:00:00 - - - - - - -
27.03.2017 12:00:00 - - - - - - -
27.03.2017 11:00:00 15,0 11,2 11 6 SSO 1021,2 20
27.03.2017 10:00:00 - - - - - - -
27.03.2017 09:00:00 - - - - - - -
27.03.2017 08:00:00 7,2 6,1 18 10 ENE 1019,1 20
27.03.2017 07:00:00 - - - - - - -
27.03.2017 06:00:00 - - - - - - -
27.03.2017 05:00:00 - - - - - - -
27.03.2017 04:00:00 - - - - - - -
27.03.2017 03:00:00 - - - - - - -
27.03.2017 02:00:00 - - - - - - -
27.03.2017 01:00:00 - - - - - - -
27.03.2017 00:00:00 - - - - - - -
26.03.2017 23:00:00 - - - - - - -
26.03.2017 22:00:00 - - - - - - -
26.03.2017 21:00:00 - - - - - - -
26.03.2017 20:00:00 14,2 13,1 15 8 NNO 1019,2 30
26.03.2017 19:00:00 - - - - - - -
26.03.2017 18:00:00 - - - - - - -
26.03.2017 17:00:00 - - - - - - -
26.03.2017 16:00:00 - - - - - - -
26.03.2017 15:00:00 - - - - - - -
26.03.2017 14:00:00 16,0 12,7 13 7 O 1021,3 30
26.03.2017 13:00:00 - - - - - - -
26.03.2017 12:00:00 - - - - - - -
26.03.2017 11:00:00 - - - - - - -
26.03.2017 10:00:00 - - - - - - -
26.03.2017 09:00:00 - - - - - - -
26.03.2017 08:00:00 7,8 7,2 5 3 ESE 1020,9 25
26.03.2017 07:00:00 - - - - - - -
26.03.2017 06:00:00 - - - - - - -
26.03.2017 05:00:00 - - - - - - -
26.03.2017 04:00:00 - - - - - - -
26.03.2017 03:00:00 - - - - - - -
26.03.2017 02:00:00 - - - - - - -
26.03.2017 01:00:00 - - - - - - -
26.03.2017 00:00:00 - - - - - - -
25.03.2017 23:00:00 - - - - - - -
25.03.2017 22:00:00 - - - - - - -
25.03.2017 21:00:00 - - - - - - -
25.03.2017 20:00:00 13,8 12,9 5 3 ONO 1020,6 20
25.03.2017 19:00:00 - - - - - - -
25.03.2017 18:00:00 - - - - - - -
25.03.2017 17:00:00 - - - - - - -
25.03.2017 16:00:00 - - - - - - -
25.03.2017 15:00:00 - - - - - - -
25.03.2017 14:00:00 14,4 12,6 22 12 O 1020,5 12
25.03.2017 13:00:00 - - - - - - -
25.03.2017 12:00:00 - - - - - - -
25.03.2017 11:00:00 - - - - - - -
25.03.2017 10:00:00 - - - - - - -
25.03.2017 09:00:00 - - - - - - -
25.03.2017 08:00:00 12,6 12,1 22 12 OSO 1018,4 2,0
25.03.2017 07:00:00 - - - - - - -
25.03.2017 06:00:00 - - - - - - -
25.03.2017 05:00:00 - - - - - - -
25.03.2017 04:00:00 - - - - - - -
25.03.2017 03:00:00 - - - - - - -
25.03.2017 02:00:00 - - - - - - -
25.03.2017 01:00:00 - - - - - - -
25.03.2017 00:00:00 - - - - - - -
24.03.2017 23:00:00 - - - - - - -
24.03.2017 22:00:00 - - - - - - -
24.03.2017 21:00:00 - - - - - - -
24.03.2017 20:00:00 17,2 15,6 50 27 ESE 1012,4 20
24.03.2017 19:00:00 - - - - - - -
24.03.2017 18:00:00 - - - - - - -
24.03.2017 17:00:00 20,0 16,8 39 21 ESE 1013,4 20
24.03.2017 16:00:00 - - - - - - -
24.03.2017 15:00:00 - - - - - - -
24.03.2017 14:00:00 20,8 17,2 52 28 SE 1014,3 20
24.03.2017 13:00:00 - - - - - - -
24.03.2017 12:00:00 - - - - - - -
24.03.2017 11:00:00 18,2 15,8 42 23 ESE 1015,0 20
24.03.2017 10:00:00 - - - - - - -
24.03.2017 09:00:00 - - - - - - -
24.03.2017 08:00:00 15,2 14,4 41 22 ESE 1013,8 10
24.03.2017 07:00:00 - - - - - - -
24.03.2017 06:00:00 - - - - - - -
24.03.2017 05:00:00 - - - - - - -
24.03.2017 04:00:00 - - - - - - -
24.03.2017 03:00:00 - - - - - - -
24.03.2017 02:00:00 - - - - - - -
24.03.2017 01:00:00 - - - - - - -
24.03.2017 00:00:00 - - - - - - -
23.03.2017 23:00:00 - - - - - - -
23.03.2017 22:00:00 - - - - - - -
23.03.2017 21:00:00 - - - - - - -
23.03.2017 20:00:00 16,6 16,1 8 4 NO 1014,7 10
23.03.2017 19:00:00 - - - - - - -
23.03.2017 18:00:00 - - - - - - -
23.03.2017 17:00:00 18,2 17,2 8 4 ONO 1014,8 10
23.03.2017 16:00:00 - - - - - - -
23.03.2017 15:00:00 - - - - - - -
23.03.2017 14:00:00 17,8 17,2 15 8 OSO 1015,7 10
23.03.2017 13:00:00 - - - - - - -
23.03.2017 12:00:00 - - - - - - -
23.03.2017 11:00:00 16,2 15,2 16 9 ESE 1015,5 8
23.03.2017 10:00:00 - - - - - - -
23.03.2017 09:00:00 - - - - - - -
23.03.2017 08:00:00 11,8 11,0 15 8 ESE 1014,7 20
23.03.2017 07:00:00 - - - - - - -
23.03.2017 06:00:00 - - - - - - -
23.03.2017 05:00:00 - - - - - - -
23.03.2017 04:00:00 - - - - - - -
23.03.2017 03:00:00 - - - - - - -
23.03.2017 02:00:00 - - - - - - -
23.03.2017 01:00:00 - - - - - - -
23.03.2017 00:00:00 - - - - - - -
22.03.2017 23:00:00 - - - - - - -
22.03.2017 22:00:00 - - - - - - -
22.03.2017 21:00:00 - - - - - - -
22.03.2017 20:00:00 14,8 14,0 9 5 SSO 1014,4 20
22.03.2017 19:00:00 - - - - - - -
22.03.2017 18:00:00 - - - - - - -
22.03.2017 17:00:00 16,4 14,4 16 9 OSO 1014,3 25
22.03.2017 16:00:00 - - - - - - -
22.03.2017 15:00:00 - - - - - - -
22.03.2017 14:00:00 16,4 14,9 13 7 OSO 1014,4 20
22.03.2017 13:00:00 - - - - - - -
22.03.2017 12:00:00 - - - - - - -
22.03.2017 11:00:00 - - - - - - -

tt = Temperatura
td = dewpoint
ff = velocità del vento
dd = direzione del vento
ppp = reduced air pressure
vv = visibility

Stazioni seguenti

WeatherPro
AMSI
MeteoEarth